Bentonville, AR

9:24 PM CST on December 09, 2016 (GMT -0600)
Northwest Arkansas Regional

Weather History for KXNA - June, 2014

Change the Weather History Date:

Sunday, June 8, 2014

  Actual Average (KVBT) Record (KVBT)
Temperature  
Mean Temperature 66 °F -  
Max Temperature 68 °F 82 °F 94 °F (1953)
Min Temperature 63 °F 58 °F 46 °F (1983)
Growing Degree Days 16 (Base 50)    
Moisture  
Dew Point 64 °F    
Average Humidity 96    
Maximum Humidity 100    
Minimum Humidity 87    
Precipitation  
Precipitation 0.34 in - - ()
Sea Level Pressure  
Sea Level Pressure 29.94 in    
Wind  
Wind Speed 5 mph (ENE)    
Max Wind Speed 10 mph    
Max Gust Speed 21 mph    
Visibility 7 miles    
Events Rain    
Averages and records for this station are not official NWS values.
T = Trace of Precipitation, MM = Missing Value Source: NWS Daily Summary

Daily Weather History Graph

Daily Weather History Graph

Search for Another Location

Airport or City:

Trip Planner

Search our weather history database for the weather conditions in past years. The results will help you decide how hot, cold, wet, or windy it might be!

Date:

Astronomy

Jun. 08, 2014 Rise Set
Actual Time 5:59 AM CDT 8:33 PM CDT
Civil Twilight 5:29 AM CDT 9:03 PM CDT
Nautical Twilight 4:51 AM CDT 9:41 PM CDT
Astronomical Twilight 4:10 AM CDT 10:22 PM CDT
Moon 3:59 PM CDT (6/8) 2:44 AM CDT (6/8)
Length of Visible Light 15h 34m
Length of Day
14h 33m
Waxing Gibbous, 77% of the Moon is Illuminated
Jun 8
Waxing Gibbous
Jun 12
Full
Jun 19
Last Quarter
Jun 27
New
Jul 5
First Quarter

Hourly Weather History & Observations

Time (CDT) Temp. Dew Point Humidity Pressure Visibility Wind Dir Wind Speed Gust Speed Precip Events Conditions
12:53 AM 68.0 °F 64.0 °F 87% 29.94 in 10.0 mi NNE 4.6 mph - N/A   Clear
1:53 AM 66.9 °F 63.0 °F 87% 29.93 in 10.0 mi NE 3.5 mph - N/A   Clear
2:53 AM 64.9 °F 63.0 °F 93% 29.93 in 10.0 mi Calm Calm - N/A   Clear
3:53 AM 64.0 °F 63.0 °F 96% 29.94 in 10.0 mi North 5.8 mph - N/A   Clear
4:53 AM 64.0 °F 63.0 °F 96% 29.93 in 10.0 mi Calm Calm - N/A   Partly Cloudy
5:53 AM 64.0 °F 63.0 °F 96% 29.94 in 10.0 mi ENE 5.8 mph - N/A   Overcast
6:53 AM 64.9 °F 62.1 °F 90% 29.99 in 10.0 mi NNE 3.5 mph - N/A   Overcast
7:53 AM 64.0 °F 61.0 °F 90% 29.98 in 10.0 mi ENE 4.6 mph - N/A   Clear
8:53 AM 64.9 °F 62.1 °F 90% 29.99 in 10.0 mi East 4.6 mph - N/A   Overcast
9:53 AM 64.9 °F 62.1 °F 90% 30.02 in 10.0 mi ESE 6.9 mph - N/A   Scattered Clouds
10:53 AM 66.0 °F 63.0 °F 90% 30.02 in 10.0 mi ESE 4.6 mph - N/A   Overcast
11:53 AM 64.9 °F 64.0 °F 97% 30.02 in 4.0 mi ENE 4.6 mph - 0.04 in Rain Rain
12:53 PM 64.9 °F 64.0 °F 97% 29.95 in 7.0 mi ENE 9.2 mph 20.7 mph 0.06 in Rain Light Rain
1:53 PM 66.0 °F 64.9 °F 96% 29.94 in 5.0 mi ENE 4.6 mph - 0.05 in Rain Light Rain
2:53 PM 66.0 °F 64.0 °F 93% 29.96 in 6.0 mi NE 3.5 mph - 0.07 in Rain Light Rain
3:53 PM 66.0 °F 64.9 °F 96% 29.93 in 9.0 mi NE 9.2 mph - 0.03 in Rain Light Rain
4:29 PM 64.4 °F 64.4 °F 100% 29.96 in 5.0 mi NE 4.6 mph - 0.01 in Rain Light Rain
4:53 PM 66.0 °F 64.9 °F 96% 29.93 in 5.0 mi NE 6.9 mph - 0.01 in Rain Light Rain
5:14 PM 64.4 °F 64.4 °F 100% 29.95 in 2.5 mi NE 6.9 mph - 0.02 in Rain Rain
5:26 PM 64.4 °F 64.4 °F 100% 29.95 in 4.0 mi NE 6.9 mph - 0.02 in Rain Light Rain
5:53 PM 64.9 °F 64.9 °F 100% 29.92 in 4.0 mi East 9.2 mph - 0.03 in Rain Light Rain
6:53 PM 64.9 °F 64.9 °F 100% 29.91 in 4.0 mi ENE 5.8 mph - 0.02 in Rain Light Rain
7:26 PM 64.4 °F 64.4 °F 100% 29.93 in 2.5 mi ENE 5.8 mph - 0.01 in Rain Light Rain
7:35 PM 64.4 °F 64.4 °F 100% 29.93 in 3.0 mi ENE 5.8 mph - 0.01 in   Overcast
7:41 PM 64.4 °F 64.4 °F 100% 29.93 in 5.0 mi ENE 5.8 mph - 0.01 in   Overcast
7:53 PM 64.0 °F 64.0 °F 100% 29.90 in 5.0 mi East 5.8 mph - 0.01 in Rain Light Rain
8:13 PM 64.4 °F 64.4 °F 100% 29.93 in 6.0 mi East 9.2 mph - 0.00 in   Overcast
8:45 PM 64.4 °F 64.4 °F 100% 29.93 in 5.0 mi East 4.6 mph - 0.01 in Rain Light Rain
8:53 PM 64.0 °F 64.0 °F 100% 29.90 in 5.0 mi ESE 5.8 mph - 0.01 in   Overcast
9:03 PM 64.4 °F 62.6 °F 94% 29.92 in 6.0 mi East 10.4 mph - 0.00 in Rain Light Rain
9:53 PM 63.0 °F 63.0 °F 100% 29.90 in 9.0 mi East 10.4 mph - 0.01 in   Overcast
10:41 PM 64.4 °F 62.6 °F 94% 29.94 in 9.0 mi East 6.9 mph - 0.00 in Rain Light Rain
10:53 PM 64.0 °F 64.0 °F 100% 29.91 in 9.0 mi East 8.1 mph - 0.00 in   Overcast
11:25 PM 64.4 °F 64.4 °F 100% 29.93 in 10.0 mi ESE 4.6 mph - N/A   Overcast
11:53 PM 64.0 °F 64.0 °F 100% 29.89 in 10.0 mi ESE 9.2 mph - N/A   Overcast